FW1757 Weather Reports


Display with metric or nautical units.
time (UTC)temp
F
wind
direction
speed
MPH
gust
MPH
rain 1hr
in
rain 24hr
in
rain mn
in
humidity
%
barometer
mb
20260509072529 56 272 0.0 0.0 0.00 0.00 0.00 66 1019.9
20260509072030 56 272 0.0 0.0 0.00 0.00 0.00 66 1019.9
20260509071526 57 272 0.0 0.0 0.00 0.00 0.00 66 1019.9
20260509071025 57 272 0.0 0.0 0.00 0.00 0.00 66 1019.8
20260509070528 58 272 0.0 0.0 0.00 0.00 0.00 65 1019.9
20260509070023 58 272 0.0 0.0 0.00 0.00 0.00 65 1019.7
20260509065522 58 272 0.0 0.0 0.00 0.00 0.00 64 1019.6
20260509065022 58 292 0.0 0.0 0.00 0.00 0.00 64 1019.6
20260509064522 58 236 0.0 0.0 0.00 0.00 0.00 64 1019.7
20260509064022 58 223 0.0 0.0 0.00 0.00 0.00 64 1019.6
20260509063524 58 211 0.0 0.0 0.00 0.00 0.00 64 1019.7
20260509063021 58 250 0.0 0.0 0.00 0.00 0.00 64 1019.5
20260509062521 58 237 0.0 0.0 0.00 0.00 0.00 64 1019.5
20260509062022 58 219 0.0 0.0 0.00 0.00 0.00 64 1019.5
20260509061525 58 254 0.0 0.0 0.00 0.00 0.00 64 1019.5
20260509061021 58 279 0.0 0.0 0.00 0.00 0.00 64 1019.3
20260509060521 58 232 0.0 0.0 0.00 0.00 0.00 64 1019.3
20260509060021 58 232 0.0 0.0 0.00 0.00 0.00 64 1019.3
20260509055521 58 256 0.0 0.0 0.00 0.00 0.00 63 1019.4
20260509055020 58 302 0.0 0.0 0.00 0.00 0.00 63 1019.4
20260509054520 58 288 0.0 0.0 0.00 0.00 0.00 63 1019.5
20260509054020 58 281 0.0 0.0 0.00 0.00 0.00 62 1019.5
20260509053521 58 277 0.0 0.0 0.00 0.00 0.00 62 1019.6
20260509053020 58 249 0.0 0.0 0.00 0.00 0.00 62 1019.6
20260509052519 59 263 0.0 0.0 0.00 0.00 0.00 61 1019.7
20260509052018 59 318 0.0 0.0 0.00 0.00 0.00 61 1019.6
20260509051520 59 252 0.0 0.0 0.00 0.00 0.00 61 1019.6
20260509051018 59 257 0.0 0.0 0.00 0.00 0.00 61 1019.7
20260509050522 59 232 0.0 0.0 0.00 0.00 0.00 61 1019.6
20260509050018 59 275 0.0 0.0 0.00 0.00 0.00 60 1019.7
20260509045522 59 255 0.0 0.0 0.00 0.00 0.00 60 1019.6
20260509045016 59 296 0.0 0.0 0.00 0.00 0.00 60 1019.5
20260509044517 59 274 0.0 0.0 0.00 0.00 0.00 59 1019.4
20260509044016 59 249 0.0 0.0 0.00 0.00 0.00 59 1019.5
20260509043519 60 233 0.0 0.0 0.00 0.00 0.00 59 1019.5
20260509043015 60 276 0.0 0.0 0.00 0.00 0.00 58 1019.4
20260509042515 60 247 0.0 0.0 0.00 0.00 0.00 58 1019.5
20260509042015 60 250 0.0 0.0 0.00 0.00 0.00 58 1019.5
20260509041514 60 255 0.0 0.0 0.00 0.00 0.00 58 1019.5
20260509041014 60 261 0.0 0.0 0.00 0.00 0.00 58 1019.4
20260509040513 61 253 0.0 0.0 0.00 0.00 0.00 57 1019.4
20260509040012 61 252 0.0 0.0 0.00 0.00 0.00 57 1019.3
20260509035515 61 242 0.0 0.0 0.00 0.00 0.00 57 1019.1
20260509035015 61 279 0.0 0.0 0.00 0.00 0.00 57 1019.0
20260509034533 61 225 0.0 0.0 0.00 0.00 0.00 56 1019.0
20260509034010 61 246 0.0 0.0 0.00 0.00 0.00 56 1018.9
20260509033510 61 285 0.0 0.0 0.00 0.00 0.00 56 1018.9
20260509033011 61 273 0.0 0.0 0.00 0.00 0.00 56 1019.0
20260509032510 61 288 0.0 0.0 0.00 0.00 0.00 55 1018.9
20260509032012 62 211 0.0 0.0 0.00 0.00 0.00 55 1018.8
20260509031510 62 281 0.0 0.0 0.00 0.00 0.00 55 1018.7
20260509031009 62 243 0.0 0.0 0.00 0.00 0.00 54 1018.7
20260509030510 62 269 0.0 0.0 0.00 0.00 0.00 54 1018.7
20260509030008 62 285 0.0 0.0 0.00 0.00 0.00 53 1018.6
20260509025509 63 311 0.0 0.0 0.00 0.00 0.00 53 1018.6
20260509025007 63 280 0.0 0.0 0.00 0.00 0.00 53 1018.5
20260509024506 63 257 0.0 0.0 0.00 0.00 0.00 52 1018.4
20260509024006 63 259 0.0 0.0 0.00 0.00 0.00 52 1018.4
20260509023506 63 281 0.0 0.0 0.00 0.00 0.00 52 1018.3
20260509023005 64 315 0.0 0.0 0.00 0.00 0.00 52 1018.2
20260509022505 64 284 0.0 0.0 0.00 0.00 0.00 51 1018.2
20260509022005 64 288 0.0 0.0 0.00 0.00 0.00 51 1018.2
20260509021505 64 276 0.0 0.0 0.00 0.00 0.00 50 1018.1
20260509021008 64 269 0.0 0.0 0.00 0.00 0.00 50 1018.1
20260509020509 65 273 0.0 0.0 0.00 0.00 0.00 49 1018.1
20260509020004 65 251 0.0 0.0 0.00 0.00 0.00 49 1018.0
20260509015504 65 284 0.0 0.0 0.00 0.00 0.00 48 1017.9
20260509015004 66 298 0.0 0.0 0.00 0.00 0.00 48 1017.9
20260509014503 66 302 0.0 0.0 0.00 0.00 0.00 48 1017.8
20260509014003 66 284 0.0 0.0 0.00 0.00 0.00 47 1017.8
20260509013502 66 271 0.0 0.0 0.00 0.00 0.00 47 1017.8
20260509013003 66 260 0.0 0.0 0.00 0.00 0.00 46 1017.9
20260509012504 67 265 0.0 0.0 0.00 0.00 0.00 46 1017.7
20260509012002 67 250 0.0 0.0 0.00 0.00 0.00 46 1017.8
20260509011502 67 285 0.0 0.0 0.00 0.00 0.00 46 1017.8
20260509011002 67 288 0.0 0.0 0.00 0.00 0.00 45 1017.9
20260509010502 67 275 0.0 0.0 0.00 0.00 0.00 46 1018.0
20260509010002 67 263 0.0 0.0 0.00 0.00 0.00 47 1018.0
20260509005500 67 302 0.0 0.0 0.00 0.00 0.00 45 1018.0
20260509005000 68 263 0.0 0.0 0.00 0.00 0.00 44 1018.0
20260509004500 68 252 0.0 0.0 0.00 0.00 0.00 44 1018.1
20260509004100 68 265 0.0 0.0 0.00 0.00 0.00 44 1017.8
20260509004003 68 276 0.0 0.0 0.00 0.00 0.00 45 1017.9
20260509003604 68 287 0.0 0.0 0.00 0.00 0.00 44 1018.0
20260509003100 68 290 0.0 0.0 0.00 0.00 0.00 44 1017.8
20260509002501 68 246 0.0 0.0 0.00 0.00 0.00 42 1017.8
20260509002100 68 279 0.0 0.0 0.00 0.00 0.00 42 1017.7
20260509001559 68 252 0.0 0.0 0.00 0.00 0.00 41 1017.6
20260509001059 68 296 0.0 0.0 0.00 0.00 0.00 43 1017.6
20260509000558 68 300 0.0 0.0 0.00 0.00 0.00 42 1017.6
20260509000058 68 288 0.0 0.0 0.00 0.00 0.00 41 1017.7
20260508235558 68 298 0.0 0.0 0.00 0.00 0.00 41 1017.6
20260508235059 68 302 0.0 0.0 0.00 0.00 0.00 41 1017.6
20260508234605 67 284 0.0 0.0 0.00 0.00 0.00 41 1017.5
20260508234100 67 276 0.0 0.0 0.00 0.00 0.00 39 1017.6
20260508233559 67 300 0.0 0.0 0.00 0.00 0.00 39 1017.5
20260508233056 67 275 0.0 0.0 0.00 0.00 0.00 38 1017.6
20260508232558 67 309 0.0 0.0 0.00 0.00 0.00 38 1017.7
20260508232058 67 294 0.0 0.0 0.00 0.00 0.00 36 1017.5
20260508231558 68 314 0.0 0.0 0.00 0.00 0.00 36 1017.5
20260508231056 68 311 0.0 0.0 0.00 0.00 0.00 37 1017.4
20260508230559 67 306 0.0 0.0 0.00 0.00 0.00 36 1017.5
20260508230057 67 282 0.0 0.0 0.00 0.00 0.00 37 1017.4
20260508225555 67 311 0.0 0.0 0.00 0.00 0.00 37 1017.5
20260508225056 68 290 0.0 0.0 0.00 0.00 0.00 37 1017.5
20260508224557 67 287 0.0 0.0 0.00 0.00 0.00 39 1017.5
20260508224054 67 309 0.0 0.0 0.00 0.00 0.00 39 1017.5
20260508223553 67 259 0.0 0.0 0.00 0.00 0.00 39 1017.6
20260508223054 68 268 0.0 0.0 0.00 0.00 0.00 38 1017.6
20260508222553 68 278 0.0 0.0 0.00 0.00 0.00 38 1017.7
20260508222051 67 261 0.0 0.0 0.00 0.00 0.00 41 1017.6
20260508221552 67 288 0.0 0.0 0.00 0.00 0.00 40 1017.6
20260508221051 67 277 0.0 0.0 0.00 0.00 0.00 41 1017.8
20260508220550 67 289 0.0 0.0 0.00 0.00 0.00 41 1017.6
20260508220049 66 309 0.0 0.0 0.00 0.00 0.00 42 1017.8
20260508215547 66 301 0.0 0.0 0.00 0.00 0.00 41 1017.7
20260508215047 66 311 0.0 0.0 0.00 0.00 0.00 43 1017.8
20260508214559 66 294 0.0 0.0 0.00 0.00 0.00 44 1017.7
20260508214044 66 300 0.0 0.0 0.00 0.00 0.00 43 1017.9
20260508213544 65 287 0.0 0.0 0.00 0.00 0.00 43 1018.0
20260508213044 65 300 0.0 0.0 0.00 0.00 0.00 42 1018.1
20260508212544 65 262 0.0 0.0 0.00 0.00 0.00 43 1018.2
20260508212044 65 285 0.0 0.0 0.00 0.00 0.00 42 1018.2
20260508211543 65 315 0.0 0.0 0.00 0.00 0.00 42 1018.2
20260508211043 65 317 0.0 0.0 0.00 0.00 0.00 42 1018.2
20260508210543 65 294 0.0 0.0 0.00 0.00 0.00 42 1017.9
20260508210046 65 277 0.0 0.0 0.00 0.00 0.00 43 1018.0
20260508205541 65 301 0.0 0.0 0.00 0.00 0.00 43 1017.9
20260508205043 65 308 0.0 0.0 0.00 0.00 0.00 43 1018.0
20260508204542 65 344 0.0 0.0 0.00 0.00 0.00 46 1018.1
20260508204038 64 313 0.0 0.0 0.00 0.00 0.00 44 1017.8
20260508203538 64 279 0.0 0.0 0.00 0.00 0.00 43 1017.8
20260508203040 64 271 0.0 0.0 0.00 0.00 0.00 45 1017.8
20260508202537 64 199 0.0 0.0 0.00 0.00 0.00 43 1017.9
20260508202036 63 288 0.0 0.0 0.00 0.00 0.00 45 1017.8
20260508201536 63 275 0.0 0.0 0.00 0.00 0.00 44 1017.8
20260508201038 63 263 0.0 0.0 0.00 0.00 0.00 47 1017.9
20260508200535 63 289 0.0 0.0 0.00 0.00 0.00 46 1017.7
20260508200041 63 292 0.0 0.0 0.00 0.00 0.00 46 1017.7
20260508195533 63 286 0.0 0.0 0.00 0.00 0.00 48 1017.6
20260508195032 63 294 0.0 0.0 0.00 0.00 0.00 48 1017.6
20260508194533 62 265 0.0 0.0 0.00 0.00 0.00 49 1017.6
20260508194030 62 250 0.0 0.0 0.00 0.00 0.00 47 1017.6
20260508193530 62 236 0.0 0.0 0.00 0.00 0.00 50 1017.5
20260508193037 62 293 0.0 0.0 0.00 0.00 0.00 51 1017.6
20260508192528 62 211 0.0 0.0 0.00 0.00 0.00 50 1017.6
20260508192029 61 301 0.0 0.0 0.00 0.00 0.00 53 1017.7
20260508191527 60 259 0.0 0.0 0.00 0.00 0.00 51 1017.7
20260508191025 60 277 0.0 0.0 0.00 0.00 0.00 53 1017.7
20260508190527 60 211 0.0 0.0 0.00 0.00 0.00 53 1017.8
20260508190039 59 288 0.0 0.0 0.00 0.00 0.00 53 1017.8
20260508185524 59 277 0.0 0.0 0.00 0.00 0.00 54 1017.7
20260508185021 59 311 0.0 0.0 0.00 0.00 0.00 53 1017.6
20260508184529 59 244 0.0 0.0 0.00 0.00 0.00 53 1017.6
20260508184020 58 236 0.0 0.0 0.00 0.00 0.00 55 1017.6
20260508183516 57 274 0.0 0.0 0.00 0.00 0.00 57 1017.6
20260508183028 57 261 0.0 0.0 0.00 0.00 0.00 57 1017.6
20260508182516 56 270 0.0 0.0 0.00 0.00 0.00 58 1017.5
20260508182014 55 290 0.0 0.0 0.00 0.00 0.00 58 1017.5
20260508181518 55 239 0.0 0.0 0.00 0.00 0.00 59 1017.5
20260508181014 55 246 0.0 0.0 0.00 0.00 0.00 59 1017.4
20260508180514 55 301 0.0 0.0 0.00 0.00 0.00 58 1017.4
20260508180014 55 261 0.0 0.0 0.00 0.00 0.00 58 1017.6
20260508175514 55 249 0.0 0.0 0.00 0.00 0.00 59 1017.5
20260508175014 55 294 0.0 0.0 0.00 0.00 0.00 58 1017.4
20260508174513 55 242 0.0 0.0 0.00 0.00 0.00 59 1017.6
20260508174012 55 279 0.0 0.0 0.00 0.00 0.00 58 1017.3
20260508173511 55 288 0.0 0.0 0.00 0.00 0.00 61 1017.4
20260508173013 55 275 0.0 0.0 0.00 0.00 0.00 61 1017.1
20260508172511 55 344 0.0 0.0 0.00 0.00 0.00 61 1017.1
20260508172011 56 290 0.0 0.0 0.00 0.00 0.00 61 1017.2
20260508171510 56 294 0.0 0.0 0.00 0.00 0.00 61 1017.1
20260508171011 56 297 0.0 0.0 0.00 0.00 0.00 60 1017.2
20260508170510 56 315 0.0 0.0 0.00 0.00 0.00 61 1017.0
20260508170011 56 324 0.0 0.0 0.00 0.00 0.00 58 1016.9
20260508165510 56 275 0.0 0.0 0.00 0.00 0.00 59 1017.0
20260508165012 56 305 0.0 0.0 0.00 0.00 0.00 58 1016.8
20260508164520 56 275 0.0 0.0 0.00 0.00 0.00 59 1016.8
20260508164009 56 275 0.0 0.0 0.00 0.00 0.00 60 1016.8
20260508163508 56 295 0.0 0.0 0.00 0.00 0.00 61 1016.8
20260508163014 56 278 0.0 0.0 0.00 0.00 0.00 61 1017.0
20260508162508 56 285 0.0 0.0 0.00 0.00 0.00 61 1017.0
20260508162008 56 300 0.0 0.0 0.00 0.00 0.00 62 1016.9
20260508161510 56 258 0.0 0.0 0.00 0.00 0.00 63 1017.0
20260508161008 56 321 0.0 0.0 0.00 0.00 0.00 63 1017.0
20260508160509 56 296 0.0 0.0 0.00 0.00 0.00 63 1017.1
20260508160007 56 311 0.0 0.0 0.00 0.00 0.00 64 1016.9
20260508155509 56 307 0.0 0.0 0.00 0.00 0.00 65 1017.1
20260508155008 56 300 0.0 0.0 0.00 0.00 0.00 65 1017.0
20260508154506 56 286 0.0 0.0 0.00 0.00 0.00 65 1016.9
20260508154005 56 325 0.0 0.0 0.00 0.00 0.00 66 1017.0
20260508153505 56 311 0.0 0.0 0.00 0.00 0.00 65 1017.0
20260508153007 56 236 0.0 0.0 0.00 0.00 0.00 66 1016.8
20260508152507 56 277 0.0 0.0 0.00 0.00 0.00 66 1016.8
20260508152006 56 249 0.0 0.0 0.00 0.00 0.00 66 1016.7
20260508151501 56 283 0.0 0.0 0.00 0.00 0.00 66 1016.7
20260508151100 56 273 0.0 0.0 0.00 0.00 0.00 65 1016.5
20260508150559 56 284 0.0 0.0 0.00 0.00 0.00 65 1016.4
20260508150059 55 288 0.0 0.0 0.00 0.00 0.00 64 1016.3
20260508145558 55 296 0.0 0.0 0.00 0.00 0.00 63 1016.2
20260508145058 55 289 0.0 0.0 0.00 0.00 0.00 62 1016.2
20260508144607 55 260 0.0 0.0 0.00 0.00 0.00 61 1016.2
20260508144059 55 274 0.0 0.0 0.00 0.00 0.00 60 1016.0
20260508143557 55 307 0.0 0.0 0.00 0.00 0.00 60 1016.0
20260508143059 55 280 0.0 0.0 0.00 0.00 0.00 61 1016.0
20260508142554 55 288 0.0 0.0 0.00 0.00 0.00 61 1015.7
20260508142055 55 271 0.0 0.0 0.00 0.00 0.00 61 1015.8
20260508141605 55 285 0.0 0.0 0.00 0.00 0.00 61 1015.7
20260508141053 55 294 0.0 0.0 0.00 0.00 0.00 61 1015.7
20260508140553 54 286 0.0 0.0 0.00 0.00 0.00 63 1015.6
20260508140054 54 285 0.0 0.0 0.00 0.00 0.00 65 1015.5
20260508135553 54 302 0.0 0.0 0.00 0.00 0.00 66 1015.5
20260508135052 54 311 0.0 0.0 0.00 0.00 0.00 66 1015.4
20260508134552 54 278 0.0 0.0 0.00 0.00 0.00 67 1015.5
20260508134051 54 265 0.0 0.0 0.00 0.00 0.00 68 1015.3
20260508133550 54 292 0.0 0.0 0.00 0.00 0.00 68 1015.3
20260508133052 53 287 0.0 0.0 0.00 0.00 0.00 68 1015.2
20260508132549 53 254 0.0 0.0 0.00 0.00 0.00 68 1015.1
20260508132049 53 253 0.0 0.0 0.00 0.00 0.00 68 1015.1
20260508131600 53 290 0.0 0.0 0.00 0.00 0.00 68 1015.0
20260508131049 53 281 0.0 0.0 0.00 0.00 0.00 68 1015.0
20260508130552 53 298 0.0 0.0 0.00 0.00 0.00 68 1015.0
20260508130048 53 245 0.0 0.0 0.00 0.00 0.00 68 1015.0
20260508125550 53 236 0.0 0.0 0.00 0.00 0.00 68 1014.9
20260508125047 53 243 0.0 0.0 0.00 0.00 0.00 68 1014.9
20260508124548 53 241 0.0 0.0 0.00 0.00 0.00 68 1014.9
20260508124047 53 289 0.0 0.0 0.00 0.00 0.00 68 1014.9
20260508123546 52 266 0.0 0.0 0.00 0.00 0.00 68 1015.0
20260508123100 52 245 0.0 0.0 0.00 0.00 0.00 68 1014.9
20260508122549 52 283 0.0 0.0 0.00 0.00 0.00 67 1014.9
20260508122047 52 254 0.0 0.0 0.00 0.00 0.00 67 1014.9
20260508121548 52 279 0.0 0.0 0.00 0.00 0.00 67 1014.9
20260508121046 52 279 0.0 0.0 0.00 0.00 0.00 67 1014.9
20260508120545 52 263 0.0 0.0 0.00 0.00 0.00 66 1014.9
20260508120104 52 242 0.0 0.0 0.00 0.00 0.00 66 1015.0
20260508115544 52 298 0.0 0.0 0.00 0.00 0.00 66 1014.8
20260508115044 52 232 0.0 0.0 0.00 0.00 0.00 65 1014.8
20260508114555 52 225 0.0 0.0 0.00 0.00 0.00 65 1014.9
20260508114043 52 203 0.0 0.0 0.00 0.00 0.00 65 1015.0
20260508113543 52 206 0.0 0.0 0.00 0.00 0.00 64 1014.9
20260508113043 52 201 0.0 0.0 0.00 0.00 0.00 64 1014.8
20260508112542 52 218 0.0 0.0 0.00 0.00 0.00 64 1014.7
20260508112042 52 246 0.0 0.0 0.00 0.00 0.00 64 1014.7
20260508111545 52 225 0.0 0.0 0.00 0.00 0.00 64 1014.6
20260508111042 52 244 0.0 0.0 0.00 0.00 0.00 64 1014.5
20260508110542 52 239 0.0 0.0 0.00 0.00 0.00 63 1014.5
20260508110041 52 267 0.0 0.0 0.00 0.00 0.00 63 1014.6
20260508105541 52 267 0.0 0.0 0.00 0.00 0.00 63 1014.5
20260508105042 52 267 0.0 0.0 0.00 0.00 0.00 63 1014.6
20260508104545 52 263 0.0 0.0 0.00 0.00 0.00 63 1014.5
20260508104041 52 283 0.0 0.0 0.00 0.00 0.00 63 1014.5
20260508103541 52 289 0.0 0.0 0.00 0.00 0.00 63 1014.5
20260508103055 52 289 0.0 0.0 0.00 0.00 0.00 63 1014.6
20260508102540 52 287 0.0 0.0 0.00 0.00 0.00 63 1014.6
20260508102040 52 277 0.0 0.0 0.00 0.00 0.00 62 1014.6
20260508101550 52 277 0.0 0.0 0.00 0.00 0.00 63 1014.6
20260508101040 52 288 0.0 0.0 0.00 0.00 0.00 62 1014.6
20260508100538 53 259 0.0 0.0 0.00 0.00 0.00 61 1014.7
20260508100038 53 259 0.0 0.0 0.00 0.00 0.00 61 1014.6
20260508095541 53 259 0.0 0.0 0.00 0.00 0.00 61 1014.7
20260508095038 53 259 0.0 0.0 0.00 0.00 0.00 61 1014.7
20260508094537 53 259 0.0 0.0 0.00 0.00 0.00 60 1014.7
20260508094035 53 256 0.0 0.0 0.00 0.00 0.00 60 1014.6
20260508093538 53 256 0.0 0.0 0.00 0.00 0.00 59 1014.6
20260508093039 53 236 0.0 0.0 0.00 0.00 0.00 59 1014.5
20260508092535 54 236 0.0 0.0 0.00 0.00 0.00 59 1014.4
20260508092033 54 232 0.0 0.0 0.00 0.00 0.00 59 1014.4
20260508091535 54 232 0.0 0.0 0.00 0.00 0.00 58 1014.5
20260508091033 54 232 0.0 0.0 0.00 0.00 0.00 58 1014.5
20260508090533 54 250 0.0 0.0 0.00 0.00 0.00 58 1014.5
20260508090033 54 268 0.0 0.0 0.00 0.00 0.00 57 1014.5
20260508085532 54 246 0.0 0.0 0.00 0.00 0.00 57 1014.4
20260508085031 54 249 0.0 0.0 0.00 0.00 0.00 57 1014.4
20260508084531 54 230 0.0 0.0 0.00 0.00 0.00 57 1014.4
20260508084031 54 223 0.0 0.0 0.00 0.00 0.00 57 1014.4
20260508083531 54 250 0.0 0.0 0.00 0.00 0.00 57 1014.4
20260508083033 54 242 0.0 0.0 0.00 0.00 0.00 56 1014.3
20260508082530 54 244 0.0 0.0 0.00 0.00 0.00 56 1014.4
20260508082029 54 227 0.0 0.0 0.00 0.00 0.00 56 1014.4
20260508081529 54 262 0.0 0.0 0.00 0.00 0.00 56 1014.3
20260508081028 54 263 0.0 0.0 0.00 0.00 0.00 56 1014.2
20260508080528 54 263 0.0 0.0 0.00 0.00 0.00 57 1014.2
20260508080028 54 263 0.0 0.0 0.00 0.00 0.00 56 1014.3
20260508075528 54 232 0.0 0.0 0.00 0.00 0.00 57 1014.2
20260508075031 54 232 0.0 0.0 0.00 0.00 0.00 57 1014.1
20260508074528 54 231 0.0 0.0 0.00 0.00 0.00 57 1014.2
20260508074027 54 239 0.0 0.0 0.00 0.00 0.00 57 1014.1
20260508073527 54 257 0.0 0.0 0.00 0.00 0.00 57 1014.2
20260508073036 54 259 0.0 0.0 0.00 0.00 0.00 57 1014.1